Tracking 22440 objects as of 26-Feb-2021
HD Live streaming from Space Station
objects crossing your sky now

BPA 1/SL-24 R/B

Track BPA 1/SL-24 R/B now!
10-day predictions


NORAD ID: 36600
Int'l Code: 2010-028C
Perigee: 720.6 km
Apogee: 1,274.5 km
Inclination: 98.3 °
Period: 104.9 minutes
Semi major axis: 7368 km
RCS: 6.6389 m2 (large)
Launch date: June 15, 2010
Source: Commonwealth of Independent States (former USSR) (CIS)
Launch site: Orenburg, Russia (OREN)

Note: This is a ROCKET BODY
aabbcc
Your satellite tracking list
Your tracking list is empty




NASA's NSSDC Master Catalog

Two Line Element Set (TLE):
1 36600U 10028C   21056.52405912 -.00000027  00000-0  38034-5 0  9991
2 36600  98.3069 141.6896 0375855  78.4005 296.5013 13.72550465536002
Source of the keplerian elements: AFSPC